Time,TemperatureF,DewpointF,PressureIn,WindDirection,WindDirectionDegrees,WindSpeedMPH,WindSpeedGustMPH,Humidity,HourlyPrecipIn,Conditions,Clouds,dailyrainin,SoftwareType,DateUTC
2013-01-18 00:00:00,31.1,27.4,29.99,WNW,287,4.0,4.0,86,0.00,,,0.00,Wunderground v.1.15,2013-01-18 06:00:00,
2013-01-18 00:05:00,31.0,27.3,29.99,West,271,4.0,5.0,86,0.00,,,0.00,Wunderground v.1.15,2013-01-18 06:05:00,
2013-01-18 00:10:00,31.0,27.3,29.99,NW,310,2.0,5.0,86,0.00,,,0.00,Wunderground v.1.15,2013-01-18 06:10:00,
2013-01-18 00:15:00,30.9,27.2,30.00,WNW,282,6.0,6.0,86,0.00,,,0.00,Wunderground v.1.15,2013-01-18 06:15:00,
2013-01-18 00:20:00,31.0,27.0,30.00,WSW,249,1.0,4.0,85,0.00,,,0.00,Wunderground v.1.15,2013-01-18 06:20:00,
2013-01-18 00:25:00,30.9,26.9,30.00,West,262,2.0,5.0,85,0.00,,,0.00,Wunderground v.1.15,2013-01-18 06:25:00,
2013-01-18 00:30:00,30.9,26.6,29.99,WSW,257,3.0,4.0,84,0.00,,,0.00,Wunderground v.1.15,2013-01-18 06:30:00,
2013-01-18 00:35:00,30.9,26.6,30.00,WSW,252,3.0,6.0,84,0.00,,,0.00,Wunderground v.1.15,2013-01-18 06:35:00,
2013-01-18 00:40:00,30.9,26.6,30.00,WNW,287,3.0,7.0,84,0.00,,,0.00,Wunderground v.1.15,2013-01-18 06:40:00,
2013-01-18 00:45:00,30.9,26.3,30.00,WNW,289,2.0,7.0,83,0.00,,,0.00,Wunderground v.1.15,2013-01-18 06:45:00,
2013-01-18 00:50:00,30.8,26.2,30.00,WSW,257,2.0,5.0,83,0.00,,,0.00,Wunderground v.1.15,2013-01-18 06:50:00,
2013-01-18 00:55:00,30.7,26.1,30.00,NW,309,3.0,6.0,83,0.00,,,0.00,Wunderground v.1.15,2013-01-18 06:55:00,
2013-01-18 01:00:00,30.6,26.1,30.00,West,280,4.0,5.0,83,0.00,,,0.00,Wunderground v.1.15,2013-01-18 07:00:00,
2013-01-18 01:05:00,30.6,26.1,30.00,West,259,2.0,5.0,83,0.00,,,0.00,Wunderground v.1.15,2013-01-18 07:05:00,
2013-01-18 01:10:00,30.5,26.0,30.01,NW,304,2.0,2.0,83,0.00,,,0.00,Wunderground v.1.15,2013-01-18 07:10:00,
2013-01-18 01:15:00,30.4,25.9,30.00,WNW,296,1.0,3.0,83,0.00,,,0.00,Wunderground v.1.15,2013-01-18 07:15:00,
2013-01-18 01:20:00,30.2,25.7,30.00,WSW,245,2.0,4.0,83,0.00,,,0.00,Wunderground v.1.15,2013-01-18 07:20:00,
2013-01-18 01:25:00,30.2,25.7,30.01,SW,222,0.0,4.0,83,0.00,,,0.00,Wunderground v.1.15,2013-01-18 07:25:00,
2013-01-18 01:30:00,30.0,25.5,30.00,SE,129,1.0,3.0,83,0.00,,,0.00,Wunderground v.1.15,2013-01-18 07:30:00,
2013-01-18 01:35:00,29.9,25.4,30.00,WSW,250,1.0,4.0,83,0.00,,,0.00,Wunderground v.1.15,2013-01-18 07:35:00,
2013-01-18 01:40:00,29.8,25.3,30.00,NW,315,0.0,2.0,83,0.00,,,0.00,Wunderground v.1.15,2013-01-18 07:40:00,
2013-01-18 01:45:00,29.7,25.2,30.00,WNW,302,1.0,3.0,83,0.00,,,0.00,Wunderground v.1.15,2013-01-18 07:45:00,
2013-01-18 01:50:00,29.7,25.5,30.00,WSW,245,1.0,2.0,84,0.00,,,0.00,Wunderground v.1.15,2013-01-18 07:50:00,
2013-01-18 01:55:00,29.7,25.2,30.00,WNW,294,2.0,2.0,83,0.00,,,0.00,Wunderground v.1.15,2013-01-18 07:55:00,
2013-01-18 02:00:00,29.7,25.2,30.00,WNW,298,1.0,1.0,83,0.00,,,0.00,Wunderground v.1.15,2013-01-18 08:00:00,
2013-01-18 02:05:00,29.6,25.1,30.01,SSW,211,1.0,3.0,83,0.00,,,0.00,Wunderground v.1.15,2013-01-18 08:05:00,
2013-01-18 02:10:00,29.6,25.1,30.01,WNW,282,2.0,2.0,83,0.00,,,0.00,Wunderground v.1.15,2013-01-18 08:10:00,
2013-01-18 02:15:00,29.6,25.1,30.01,NW,305,2.0,3.0,83,0.00,,,0.00,Wunderground v.1.15,2013-01-18 08:15:00,
2013-01-18 02:20:00,29.6,25.1,30.01,WNW,284,2.0,3.0,83,0.00,,,0.00,Wunderground v.1.15,2013-01-18 08:20:00,
2013-01-18 02:25:00,29.6,25.1,30.01,West,269,0.0,4.0,83,0.00,,,0.00,Wunderground v.1.15,2013-01-18 08:25:00,
2013-01-18 02:30:00,29.4,24.9,30.01,West,269,0.0,1.0,83,0.00,,,0.00,Wunderground v.1.15,2013-01-18 08:30:00,
2013-01-18 02:35:00,29.3,24.8,30.01,WNW,284,3.0,3.0,83,0.00,,,0.00,Wunderground v.1.15,2013-01-18 08:35:00,
2013-01-18 02:40:00,29.2,24.7,30.00,West,280,0.0,1.0,83,0.00,,,0.00,Wunderground v.1.15,2013-01-18 08:40:00,
2013-01-18 02:45:00,29.1,24.6,30.00,West,270,0.0,2.0,83,0.00,,,0.00,Wunderground v.1.15,2013-01-18 08:45:00,
2013-01-18 02:50:00,29.1,24.6,30.01,WNW,282,2.0,2.0,83,0.00,,,0.00,Wunderground v.1.15,2013-01-18 08:50:00,
2013-01-18 02:55:00,29.1,24.6,30.00,West,269,0.0,3.0,83,0.00,,,0.00,Wunderground v.1.15,2013-01-18 08:55:00,
2013-01-18 03:00:00,28.9,24.7,30.00,West,276,1.0,1.0,84,0.00,,,0.00,Wunderground v.1.15,2013-01-18 09:00:00,
2013-01-18 03:05:00,28.9,24.7,30.01,West,273,0.0,1.0,84,0.00,,,0.00,Wunderground v.1.15,2013-01-18 09:05:00,
2013-01-18 03:10:00,28.8,24.9,30.01,SSE,165,0.0,0.0,85,0.00,,,0.00,Wunderground v.1.15,2013-01-18 09:10:00,
2013-01-18 03:15:00,29.2,25.5,30.01,SSE,150,0.0,0.0,86,0.00,,,0.00,Wunderground v.1.15,2013-01-18 09:15:00,
2013-01-18 03:20:00,29.2,25.3,30.01,SSE,148,0.0,0.0,85,0.00,,,0.00,Wunderground v.1.15,2013-01-18 09:20:00,
2013-01-18 03:25:00,29.2,25.0,30.00,SSE,148,0.0,1.0,84,0.00,,,0.00,Wunderground v.1.15,2013-01-18 09:25:00,
2013-01-18 03:30:00,29.1,25.2,30.00,SSE,148,0.0,0.0,85,0.00,,,0.00,Wunderground v.1.15,2013-01-18 09:30:00,
2013-01-18 03:35:00,28.7,24.5,30.00,SSE,148,0.0,0.0,84,0.00,,,0.00,Wunderground v.1.15,2013-01-18 09:35:00,
2013-01-18 03:40:00,28.3,24.1,30.00,SSE,148,1.0,1.0,84,0.00,,,0.00,Wunderground v.1.15,2013-01-18 09:40:00,
2013-01-18 03:45:00,28.0,24.1,30.00,NNW,338,0.0,1.0,85,0.00,,,0.00,Wunderground v.1.15,2013-01-18 09:45:00,
2013-01-18 03:50:00,27.6,24.0,30.00,NNW,343,0.0,1.0,86,0.00,,,0.00,Wunderground v.1.15,2013-01-18 09:50:00,
2013-01-18 03:55:00,27.5,24.1,30.00,NNW,343,0.0,1.0,87,0.00,,,0.00,Wunderground v.1.15,2013-01-18 09:55:00,
2013-01-18 04:00:00,27.2,23.6,30.00,NNW,343,0.0,0.0,86,0.00,,,0.00,Wunderground v.1.15,2013-01-18 10:00:00,
2013-01-18 04:05:00,26.7,23.4,30.00,NNW,343,0.0,0.0,87,0.00,,,0.00,Wunderground v.1.15,2013-01-18 10:05:00,
2013-01-18 04:10:00,26.4,23.6,30.00,NNW,342,0.0,0.0,89,0.00,,,0.00,Wunderground v.1.15,2013-01-18 10:10:00,
2013-01-18 04:15:00,26.1,23.3,30.00,NNW,343,0.0,0.0,89,0.00,,,0.00,Wunderground v.1.15,2013-01-18 10:15:00,
2013-01-18 04:20:00,26.1,23.6,30.00,NNW,343,0.0,0.0,90,0.00,,,0.00,Wunderground v.1.15,2013-01-18 10:20:00,
2013-01-18 04:25:00,26.7,24.7,30.00,NNW,343,0.0,0.0,92,0.00,,,0.00,Wunderground v.1.15,2013-01-18 10:25:00,
2013-01-18 04:30:00,26.9,24.4,30.00,NNW,343,0.0,0.0,90,0.00,,,0.00,Wunderground v.1.15,2013-01-18 10:30:00,
2013-01-18 04:35:00,26.9,24.1,30.00,NNW,343,0.0,0.0,89,0.00,,,0.00,Wunderground v.1.15,2013-01-18 10:35:00,
2013-01-18 04:40:00,26.8,24.0,30.00,NNW,343,0.0,0.0,89,0.00,,,0.00,Wunderground v.1.15,2013-01-18 10:40:00,
2013-01-18 04:45:00,26.6,23.8,30.00,NNW,343,0.0,0.0,89,0.00,,,0.00,Wunderground v.1.15,2013-01-18 10:45:00,
2013-01-18 04:50:00,26.8,24.3,30.01,North,358,0.0,0.0,90,0.00,,,0.00,Wunderground v.1.15,2013-01-18 10:50:00,
2013-01-18 04:55:00,26.9,24.1,30.01,North,358,0.0,0.0,89,0.00,,,0.00,Wunderground v.1.15,2013-01-18 10:55:00,
2013-01-18 05:00:00,26.6,23.5,30.01,North,359,0.0,0.0,88,0.00,,,0.00,Wunderground v.1.15,2013-01-18 11:00:00,
2013-01-18 05:05:00,26.6,23.8,30.01,SSW,194,2.0,2.0,89,0.00,,,0.00,Wunderground v.1.15,2013-01-18 11:05:00,
2013-01-18 05:10:00,26.6,24.1,30.01,SSW,193,0.0,1.0,90,0.00,,,0.00,Wunderground v.1.15,2013-01-18 11:10:00,
2013-01-18 05:15:00,26.9,24.1,30.02,SW,225,1.0,1.0,89,0.00,,,0.00,Wunderground v.1.15,2013-01-18 11:15:00,
2013-01-18 05:20:00,26.9,23.8,30.02,South,188,1.0,2.0,88,0.00,,,0.00,Wunderground v.1.15,2013-01-18 11:20:00,
2013-01-18 05:25:00,26.6,23.5,30.02,South,191,2.0,3.0,88,0.00,,,0.00,Wunderground v.1.15,2013-01-18 11:25:00,
2013-01-18 05:30:00,26.6,23.5,30.02,SSW,211,2.0,4.0,88,0.00,,,0.00,Wunderground v.1.15,2013-01-18 11:30:00,
2013-01-18 05:35:00,26.6,23.5,30.03,SW,217,0.0,4.0,88,0.00,,,0.00,Wunderground v.1.15,2013-01-18 11:35:00,
2013-01-18 05:40:00,26.6,23.8,30.03,SSW,211,0.0,2.0,89,0.00,,,0.00,Wunderground v.1.15,2013-01-18 11:40:00,
2013-01-18 05:45:00,26.6,23.5,30.03,SSW,201,0.0,2.0,88,0.00,,,0.00,Wunderground v.1.15,2013-01-18 11:45:00,
2013-01-18 05:50:00,26.5,23.4,30.03,South,190,0.0,1.0,88,0.00,,,0.00,Wunderground v.1.15,2013-01-18 11:50:00,
2013-01-18 05:55:00,26.3,23.2,30.03,SSW,208,0.0,1.0,88,0.00,,,0.00,Wunderground v.1.15,2013-01-18 11:55:00,
2013-01-18 06:00:00,26.3,23.5,30.03,SW,221,0.0,0.0,89,0.00,,,0.00,Wunderground v.1.15,2013-01-18 12:00:00,
2013-01-18 06:05:00,26.1,23.0,30.03,SW,218,0.0,1.0,88,0.00,,,0.00,Wunderground v.1.15,2013-01-18 12:05:00,
2013-01-18 06:10:00,25.7,22.6,30.03,SW,218,0.0,0.0,88,0.00,,,0.00,Wunderground v.1.15,2013-01-18 12:10:00,
2013-01-18 06:15:00,25.1,22.0,30.03,SW,218,0.0,0.0,88,0.00,,,0.00,Wunderground v.1.15,2013-01-18 12:15:00,
2013-01-18 06:20:00,24.7,21.9,30.03,SW,218,0.0,0.0,89,0.00,,,0.00,Wunderground v.1.15,2013-01-18 12:20:00,
2013-01-18 06:25:00,24.7,22.4,30.03,SW,214,0.0,0.0,91,0.00,,,0.00,Wunderground v.1.15,2013-01-18 12:25:00,
2013-01-18 06:30:00,25.0,22.7,30.03,SW,214,0.0,0.0,91,0.00,,,0.00,Wunderground v.1.15,2013-01-18 12:30:00,
2013-01-18 06:35:00,24.8,22.5,30.04,SW,214,0.0,0.0,91,0.00,,,0.00,Wunderground v.1.15,2013-01-18 12:35:00,
2013-01-18 06:40:00,24.8,22.5,30.04,SSW,211,0.0,1.0,91,0.00,,,0.00,Wunderground v.1.15,2013-01-18 12:40:00,
2013-01-18 06:45:00,25.0,23.0,30.03,SSW,211,0.0,1.0,92,0.00,,,0.00,Wunderground v.1.15,2013-01-18 12:45:00,
2013-01-18 06:50:00,24.8,22.5,30.03,SSW,211,0.0,0.0,91,0.00,,,0.00,Wunderground v.1.15,2013-01-18 12:50:00,
2013-01-18 06:55:00,24.4,22.2,30.03,SSW,211,0.0,0.0,91,0.00,,,0.00,Wunderground v.1.15,2013-01-18 12:55:00,
2013-01-18 07:00:00,24.1,21.9,30.03,SSW,211,0.0,0.0,91,0.00,,,0.00,Wunderground v.1.15,2013-01-18 13:00:00,
2013-01-18 07:05:00,23.8,21.6,30.04,SSW,211,0.0,0.0,91,0.00,,,0.00,Wunderground v.1.15,2013-01-18 13:05:00,
2013-01-18 07:10:00,24.2,22.5,30.04,SSW,211,0.0,0.0,93,0.00,,,0.00,Wunderground v.1.15,2013-01-18 13:10:00,
2013-01-18 07:15:00,24.7,22.7,30.04,SSW,211,0.0,0.0,92,0.00,,,0.00,Wunderground v.1.15,2013-01-18 13:15:00,
2013-01-18 07:20:00,25.3,23.3,30.04,SSW,211,0.0,0.0,92,0.00,,,0.00,Wunderground v.1.15,2013-01-18 13:20:00,
2013-01-18 07:25:00,26.0,23.7,30.04,SSW,211,0.0,0.0,91,0.00,,,0.00,Wunderground v.1.15,2013-01-18 13:25:00,
2013-01-18 07:30:00,26.5,23.7,30.04,SE,140,0.0,0.0,89,0.00,,,0.00,Wunderground v.1.15,2013-01-18 13:30:00,
2013-01-18 07:35:00,26.8,24.0,30.04,SE,124,0.0,0.0,89,0.00,,,0.00,Wunderground v.1.15,2013-01-18 13:35:00,
2013-01-18 07:40:00,27.4,24.3,30.04,SE,124,0.0,0.0,88,0.00,,,0.00,Wunderground v.1.15,2013-01-18 13:40:00,
2013-01-18 07:45:00,28.5,25.1,30.04,SE,124,0.0,0.0,87,0.00,,,0.00,Wunderground v.1.15,2013-01-18 13:45:00,
2013-01-18 07:50:00,29.4,25.4,30.04,SE,124,0.0,0.0,85,0.00,,,0.00,Wunderground v.1.15,2013-01-18 13:50:00,
2013-01-18 07:55:00,30.1,25.6,30.05,SE,125,0.0,0.0,83,0.00,,,0.00,Wunderground v.1.15,2013-01-18 13:55:00,
2013-01-18 08:00:00,31.0,26.1,30.05,SE,126,0.0,0.0,82,0.00,,,0.00,Wunderground v.1.15,2013-01-18 14:00:00,
2013-01-18 08:05:00,32.4,27.2,30.05,SE,126,0.0,0.0,81,0.00,,,0.00,Wunderground v.1.15,2013-01-18 14:05:00,
2013-01-18 08:10:00,33.5,27.7,30.05,SE,126,0.0,0.0,79,0.00,,,0.00,Wunderground v.1.15,2013-01-18 14:10:00,
2013-01-18 08:15:00,34.4,27.9,30.05,SE,126,0.0,1.0,77,0.00,,,0.00,Wunderground v.1.15,2013-01-18 14:15:00,
2013-01-18 08:20:00,34.5,27.1,30.05,SE,124,0.0,0.0,74,0.00,,,0.00,Wunderground v.1.15,2013-01-18 14:20:00,
2013-01-18 08:25:00,34.3,27.2,30.06,SE,125,0.0,1.0,75,0.00,,,0.00,Wunderground v.1.15,2013-01-18 14:25:00,
2013-01-18 08:30:00,34.1,27.0,30.06,SE,124,0.0,0.0,75,0.00,,,0.00,Wunderground v.1.15,2013-01-18 14:30:00,
2013-01-18 08:35:00,34.3,27.5,30.06,SE,124,0.0,1.0,76,0.00,,,0.00,Wunderground v.1.15,2013-01-18 14:35:00,
2013-01-18 08:40:00,35.0,28.2,30.06,SE,124,0.0,0.0,76,0.00,,,0.00,Wunderground v.1.15,2013-01-18 14:40:00,
2013-01-18 08:45:00,35.7,28.6,30.07,SE,126,0.0,1.0,75,0.00,,,0.00,Wunderground v.1.15,2013-01-18 14:45:00,
2013-01-18 08:50:00,36.0,28.8,30.07,SE,125,0.0,0.0,75,0.00,,,0.00,Wunderground v.1.15,2013-01-18 14:50:00,
2013-01-18 08:55:00,37.0,29.5,30.07,ESE,113,1.0,1.0,74,0.00,,,0.00,Wunderground v.1.15,2013-01-18 14:55:00,
2013-01-18 09:00:00,37.1,28.6,30.07,ENE,77,0.0,1.0,71,0.00,,,0.00,Wunderground v.1.15,2013-01-18 15:00:00,
2013-01-18 09:05:00,36.9,29.1,30.07,East,94,0.0,2.0,73,0.00,,,0.00,Wunderground v.1.15,2013-01-18 15:05:00,
2013-01-18 09:10:00,37.2,29.0,30.07,SSE,147,1.0,2.0,72,0.00,,,0.00,Wunderground v.1.15,2013-01-18 15:10:00,
2013-01-18 09:15:00,37.5,28.2,30.07,SE,140,0.0,2.0,69,0.00,,,0.00,Wunderground v.1.15,2013-01-18 15:15:00,
2013-01-18 09:20:00,37.7,28.4,30.07,ENE,73,2.0,3.0,69,0.00,,,0.00,Wunderground v.1.15,2013-01-18 15:20:00,
2013-01-18 09:25:00,37.3,28.1,30.08,NE,52,2.0,4.0,69,0.00,,,0.00,Wunderground v.1.15,2013-01-18 15:25:00,
2013-01-18 09:30:00,37.4,27.4,30.07,SE,125,2.0,5.0,67,0.00,,,0.00,Wunderground v.1.15,2013-01-18 15:30:00,
2013-01-18 09:35:00,37.3,27.3,30.07,East,84,1.0,5.0,67,0.00,,,0.00,Wunderground v.1.15,2013-01-18 15:35:00,
2013-01-18 09:40:00,36.5,27.3,30.07,East,93,1.0,3.0,69,0.00,,,0.00,Wunderground v.1.15,2013-01-18 15:40:00,
2013-01-18 09:45:00,36.9,27.3,30.07,ESE,103,1.0,5.0,68,0.00,,,0.00,Wunderground v.1.15,2013-01-18 15:45:00,
2013-01-18 09:50:00,37.4,27.8,30.07,SSE,148,3.0,4.0,68,0.00,,,0.00,Wunderground v.1.15,2013-01-18 15:50:00,
2013-01-18 09:55:00,37.9,27.5,30.07,SE,132,1.0,5.0,66,0.00,,,0.00,Wunderground v.1.15,2013-01-18 15:55:00,
2013-01-18 10:00:00,38.4,28.0,30.07,SE,145,3.0,4.0,66,0.00,,,0.00,Wunderground v.1.15,2013-01-18 16:00:00,
2013-01-18 10:05:00,38.0,27.3,30.06,ENE,62,3.0,7.0,65,0.00,,,0.00,Wunderground v.1.15,2013-01-18 16:05:00,
2013-01-18 10:10:00,37.9,26.8,30.06,ENE,70,5.0,5.0,64,0.00,,,0.00,Wunderground v.1.15,2013-01-18 16:10:00,
2013-01-18 10:15:00,38.2,27.1,30.06,East,91,2.0,6.0,64,0.00,,,0.00,Wunderground v.1.15,2013-01-18 16:15:00,
2013-01-18 10:20:00,38.4,26.5,30.06,East,94,3.0,5.0,62,0.00,,,0.00,Wunderground v.1.15,2013-01-18 16:20:00,
2013-01-18 10:25:00,38.0,26.5,30.06,ENE,74,5.0,8.0,63,0.00,,,0.00,Wunderground v.1.15,2013-01-18 16:25:00,
2013-01-18 10:30:00,38.3,27.2,30.06,ESE,117,1.0,5.0,64,0.00,,,0.00,Wunderground v.1.15,2013-01-18 16:30:00,
2013-01-18 10:35:00,39.0,27.5,30.05,SE,136,2.0,6.0,63,0.00,,,0.00,Wunderground v.1.15,2013-01-18 16:35:00,
2013-01-18 10:40:00,39.8,27.8,30.05,East,85,1.0,3.0,62,0.00,,,0.00,Wunderground v.1.15,2013-01-18 16:40:00,
2013-01-18 10:45:00,40.1,26.9,30.05,SE,144,5.0,6.0,59,0.00,,,0.00,Wunderground v.1.15,2013-01-18 16:45:00,
2013-01-18 10:50:00,40.2,27.0,30.05,SE,125,2.0,5.0,59,0.00,,,0.00,Wunderground v.1.15,2013-01-18 16:50:00,
2013-01-18 10:55:00,40.5,27.7,30.04,SSE,149,0.0,6.0,60,0.00,,,0.00,Wunderground v.1.15,2013-01-18 16:55:00,
2013-01-18 11:00:00,40.7,27.9,30.04,East,87,1.0,4.0,60,0.00,,,0.00,Wunderground v.1.15,2013-01-18 17:00:00,
2013-01-18 11:05:00,40.7,27.5,30.04,ESE,120,1.0,6.0,59,0.00,,,0.00,Wunderground v.1.15,2013-01-18 17:05:00,
2013-01-18 11:10:00,40.8,28.0,30.04,South,188,2.0,5.0,60,0.00,,,0.00,Wunderground v.1.15,2013-01-18 17:10:00,
2013-01-18 11:15:00,41.7,28.4,30.04,South,184,2.0,5.0,59,0.00,,,0.00,Wunderground v.1.15,2013-01-18 17:15:00,
2013-01-18 11:20:00,42.4,28.2,30.04,ESE,122,6.0,6.0,57,0.00,,,0.00,Wunderground v.1.15,2013-01-18 17:20:00,
2013-01-18 11:25:00,42.4,28.2,30.03,SSE,148,3.0,9.0,57,0.00,,,0.00,Wunderground v.1.15,2013-01-18 17:25:00,
2013-01-18 11:30:00,42.2,28.0,30.03,SE,146,0.0,3.0,57,0.00,,,0.00,Wunderground v.1.15,2013-01-18 17:30:00,
2013-01-18 11:35:00,42.5,28.3,30.03,SE,140,3.0,8.0,57,0.00,,,0.00,Wunderground v.1.15,2013-01-18 17:35:00,
2013-01-18 11:40:00,42.6,28.4,30.02,SE,146,3.0,4.0,57,0.00,,,0.00,Wunderground v.1.15,2013-01-18 17:40:00,
2013-01-18 11:45:00,43.1,29.3,30.02,South,175,1.0,6.0,58,0.00,,,0.00,Wunderground v.1.15,2013-01-18 17:45:00,
2013-01-18 11:50:00,43.1,28.5,30.01,SE,131,5.0,6.0,56,0.00,,,0.00,Wunderground v.1.15,2013-01-18 17:50:00,
2013-01-18 11:55:00,43.3,28.6,30.01,SSE,162,6.0,9.0,56,0.00,,,0.00,Wunderground v.1.15,2013-01-18 17:55:00,
2013-01-18 12:00:00,43.5,28.8,30.01,South,186,2.0,6.0,56,0.00,,,0.00,Wunderground v.1.15,2013-01-18 18:00:00,
2013-01-18 12:05:00,43.7,28.1,30.00,SE,145,1.0,8.0,54,0.00,,,0.00,Wunderground v.1.15,2013-01-18 18:05:00,
2013-01-18 12:10:00,43.4,28.3,30.00,South,187,4.0,5.0,55,0.00,,,0.00,Wunderground v.1.15,2013-01-18 18:10:00,
2013-01-18 12:15:00,43.5,27.9,29.99,ESE,112,7.0,8.0,54,0.00,,,0.00,Wunderground v.1.15,2013-01-18 18:15:00,
2013-01-18 12:20:00,43.9,28.3,29.99,SE,136,7.0,9.0,54,0.00,,,0.00,Wunderground v.1.15,2013-01-18 18:20:00,
2013-01-18 12:25:00,44.1,28.5,29.99,East,86,5.0,9.0,54,0.00,,,0.00,Wunderground v.1.15,2013-01-18 18:25:00,
2013-01-18 12:30:00,44.7,28.6,29.98,SE,138,8.0,9.0,53,0.00,,,0.00,Wunderground v.1.15,2013-01-18 18:30:00,
2013-01-18 12:35:00,44.6,28.0,29.98,SSE,148,5.0,10.0,52,0.00,,,0.00,Wunderground v.1.15,2013-01-18 18:35:00,
2013-01-18 12:40:00,44.7,28.1,29.98,SSW,208,6.0,6.0,52,0.00,,,0.00,Wunderground v.1.15,2013-01-18 18:40:00,
2013-01-18 12:45:00,45.1,29.4,29.97,SSE,149,3.0,7.0,54,0.00,,,0.00,Wunderground v.1.15,2013-01-18 18:45:00,
2013-01-18 12:50:00,45.5,29.3,29.97,ESE,119,6.0,6.0,53,0.00,,,0.00,Wunderground v.1.15,2013-01-18 18:50:00,
2013-01-18 12:55:00,45.8,29.6,29.97,SE,136,4.0,6.0,53,0.00,,,0.00,Wunderground v.1.15,2013-01-18 18:55:00,
2013-01-18 13:00:00,46.1,29.0,29.96,SE,130,4.0,9.0,51,0.00,,,0.00,Wunderground v.1.15,2013-01-18 19:00:00,
2013-01-18 13:05:00,46.2,29.1,29.96,SE,142,6.0,9.0,51,0.00,,,0.00,Wunderground v.1.15,2013-01-18 19:05:00,
2013-01-18 13:10:00,46.5,29.3,29.96,SE,146,3.0,4.0,51,0.00,,,0.00,Wunderground v.1.15,2013-01-18 19:10:00,
2013-01-18 13:15:00,46.8,29.6,29.96,SE,144,3.0,8.0,51,0.00,,,0.00,Wunderground v.1.15,2013-01-18 19:15:00,
2013-01-18 13:20:00,46.9,29.2,29.95,SE,145,4.0,6.0,50,0.00,,,0.00,Wunderground v.1.15,2013-01-18 19:20:00,
2013-01-18 13:25:00,46.9,28.7,29.95,SSE,150,5.0,10.0,49,0.00,,,0.00,Wunderground v.1.15,2013-01-18 19:25:00,
2013-01-18 13:30:00,47.3,29.6,29.95,SSE,166,4.0,6.0,50,0.00,,,0.00,Wunderground v.1.15,2013-01-18 19:30:00,
2013-01-18 13:35:00,47.5,29.3,29.95,SSE,158,8.0,10.0,49,0.00,,,0.00,Wunderground v.1.15,2013-01-18 19:35:00,
2013-01-18 13:40:00,47.5,28.8,29.95,SSW,211,3.0,8.0,48,0.00,,,0.00,Wunderground v.1.15,2013-01-18 19:40:00,
2013-01-18 13:45:00,47.7,29.5,29.95,SSE,159,7.0,8.0,49,0.00,,,0.00,Wunderground v.1.15,2013-01-18 19:45:00,
2013-01-18 13:50:00,47.6,29.4,29.95,SE,130,4.0,9.0,49,0.00,,,0.00,Wunderground v.1.15,2013-01-18 19:50:00,
2013-01-18 13:55:00,47.3,29.1,29.94,SE,124,5.0,12.0,49,0.00,,,0.00,Wunderground v.1.15,2013-01-18 19:55:00,
2013-01-18 14:00:00,47.5,29.8,29.94,NE,39,3.0,7.0,50,0.00,,,0.00,Wunderground v.1.15,2013-01-18 20:00:00,
2013-01-18 14:05:00,47.6,29.4,29.94,SE,125,5.0,12.0,49,0.00,,,0.00,Wunderground v.1.15,2013-01-18 20:05:00,
2013-01-18 14:10:00,47.9,29.6,29.94,SSE,158,2.0,5.0,49,0.00,,,0.00,Wunderground v.1.15,2013-01-18 20:10:00,
2013-01-18 14:15:00,48.3,30.0,29.93,SSE,151,2.0,9.0,49,0.00,,,0.00,Wunderground v.1.15,2013-01-18 20:15:00,
2013-01-18 14:20:00,48.7,30.4,29.93,ESE,103,4.0,4.0,49,0.00,,,0.00,Wunderground v.1.15,2013-01-18 20:20:00,
2013-01-18 14:25:00,48.7,30.4,29.93,SSE,168,5.0,10.0,49,0.00,,,0.00,Wunderground v.1.15,2013-01-18 20:25:00,
2013-01-18 14:30:00,48.9,30.1,29.93,East,79,6.0,8.0,48,0.00,,,0.00,Wunderground v.1.15,2013-01-18 20:30:00,
2013-01-18 14:35:00,48.8,28.4,29.93,SE,134,7.0,12.0,45,0.00,,,0.00,Wunderground v.1.15,2013-01-18 20:35:00,
2013-01-18 14:40:00,48.6,28.7,29.93,ESE,120,7.0,7.0,46,0.00,,,0.00,Wunderground v.1.15,2013-01-18 20:40:00,
2013-01-18 14:45:00,48.6,28.7,29.92,South,172,4.0,10.0,46,0.00,,,0.00,Wunderground v.1.15,2013-01-18 20:45:00,
2013-01-18 14:50:00,48.9,29.5,29.92,SSE,159,5.0,5.0,47,0.00,,,0.00,Wunderground v.1.15,2013-01-18 20:50:00,
2013-01-18 14:55:00,49.5,29.0,29.92,East,79,4.0,8.0,45,0.00,,,0.00,Wunderground v.1.15,2013-01-18 20:55:00,
2013-01-18 15:00:00,49.4,27.8,29.92,SE,141,6.0,9.0,43,0.00,,,0.00,Wunderground v.1.15,2013-01-18 21:00:00,
2013-01-18 15:05:00,49.1,27.5,29.91,ESE,106,7.0,13.0,43,0.00,,,0.00,Wunderground v.1.15,2013-01-18 21:05:00,
2013-01-18 15:10:00,48.9,27.9,29.91,SE,132,6.0,8.0,44,0.00,,,0.00,Wunderground v.1.15,2013-01-18 21:10:00,
2013-01-18 15:15:00,48.8,28.4,29.91,SE,133,6.0,13.0,45,0.00,,,0.00,Wunderground v.1.15,2013-01-18 21:15:00,
2013-01-18 15:20:00,49.1,28.7,29.91,SSW,200,5.0,7.0,45,0.00,,,0.00,Wunderground v.1.15,2013-01-18 21:20:00,
2013-01-18 15:25:00,49.2,28.7,29.91,East,79,7.0,12.0,45,0.00,,,0.00,Wunderground v.1.15,2013-01-18 21:25:00,
2013-01-18 15:30:00,49.1,28.1,29.90,SE,126,6.0,7.0,44,0.00,,,0.00,Wunderground v.1.15,2013-01-18 21:30:00,
2013-01-18 15:35:00,49.5,29.0,29.90,ESE,120,5.0,8.0,45,0.00,,,0.00,Wunderground v.1.15,2013-01-18 21:35:00,
2013-01-18 15:40:00,49.5,29.0,29.90,ENE,75,2.0,4.0,45,0.00,,,0.00,Wunderground v.1.15,2013-01-18 21:40:00,
2013-01-18 15:45:00,49.4,28.9,29.90,SSE,155,10.0,12.0,45,0.00,,,0.00,Wunderground v.1.15,2013-01-18 21:45:00,
2013-01-18 15:50:00,49.2,28.7,29.90,SSE,156,6.0,6.0,45,0.00,,,0.00,Wunderground v.1.15,2013-01-18 21:50:00,
2013-01-18 15:55:00,49.3,28.8,29.90,ESE,117,6.0,8.0,45,0.00,,,0.00,Wunderground v.1.15,2013-01-18 21:55:00,
2013-01-18 16:00:00,49.3,28.8,29.90,ESE,105,3.0,4.0,45,0.00,,,0.00,Wunderground v.1.15,2013-01-18 22:00:00,
2013-01-18 16:05:00,49.2,29.3,29.90,SSE,148,4.0,7.0,46,0.00,,,0.00,Wunderground v.1.15,2013-01-18 22:05:00,
2013-01-18 16:10:00,49.2,29.3,29.89,SE,145,2.0,5.0,46,0.00,,,0.00,Wunderground v.1.15,2013-01-18 22:10:00,
2013-01-18 16:15:00,49.1,29.2,29.89,SSE,152,5.0,7.0,46,0.00,,,0.00,Wunderground v.1.15,2013-01-18 22:15:00,
2013-01-18 16:20:00,48.8,29.4,29.89,ESE,112,6.0,6.0,47,0.00,,,0.00,Wunderground v.1.15,2013-01-18 22:20:00,
2013-01-18 16:25:00,48.5,29.7,29.89,ESE,115,3.0,7.0,48,0.00,,,0.00,Wunderground v.1.15,2013-01-18 22:25:00,
2013-01-18 16:30:00,48.4,29.1,29.89,SE,129,5.0,5.0,47,0.00,,,0.00,Wunderground v.1.15,2013-01-18 22:30:00,
2013-01-18 16:35:00,48.1,28.8,29.89,ENE,78,3.0,7.0,47,0.00,,,0.00,Wunderground v.1.15,2013-01-18 22:35:00,
2013-01-18 16:40:00,48.0,29.2,29.89,SSE,148,4.0,5.0,48,0.00,,,0.00,Wunderground v.1.15,2013-01-18 22:40:00,
2013-01-18 16:45:00,47.8,29.0,29.89,SSE,156,2.0,5.0,48,0.00,,,0.00,Wunderground v.1.15,2013-01-18 22:45:00,
2013-01-18 16:50:00,47.5,28.8,29.89,ENE,68,4.0,4.0,48,0.00,,,0.00,Wunderground v.1.15,2013-01-18 22:50:00,
2013-01-18 16:55:00,47.2,28.5,29.89,SE,134,2.0,7.0,48,0.00,,,0.00,Wunderground v.1.15,2013-01-18 22:55:00,
2013-01-18 17:00:00,46.9,28.2,29.89,ESE,117,3.0,5.0,48,0.00,,,0.00,Wunderground v.1.15,2013-01-18 23:00:00,
2013-01-18 17:05:00,46.6,28.4,29.88,SE,138,1.0,7.0,49,0.00,,,0.00,Wunderground v.1.15,2013-01-18 23:05:00,
2013-01-18 17:10:00,46.3,28.2,29.88,ESE,117,2.0,4.0,49,0.00,,,0.00,Wunderground v.1.15,2013-01-18 23:10:00,
2013-01-18 17:15:00,46.0,28.4,29.88,SE,146,4.0,7.0,50,0.00,,,0.00,Wunderground v.1.15,2013-01-18 23:15:00,
2013-01-18 17:20:00,45.7,28.6,29.88,East,85,3.0,3.0,51,0.00,,,0.00,Wunderground v.1.15,2013-01-18 23:20:00,
2013-01-18 17:25:00,45.5,28.4,29.88,East,100,2.0,3.0,51,0.00,,,0.00,Wunderground v.1.15,2013-01-18 23:25:00,
2013-01-18 17:30:00,45.2,28.1,29.88,East,96,2.0,2.0,51,0.00,,,0.00,Wunderground v.1.15,2013-01-18 23:30:00,
2013-01-18 17:35:00,45.0,27.9,29.88,ESE,113,4.0,5.0,51,0.00,,,0.00,Wunderground v.1.15,2013-01-18 23:35:00,
2013-01-18 17:40:00,44.7,28.1,29.88,East,84,2.0,2.0,52,0.00,,,0.00,Wunderground v.1.15,2013-01-18 23:40:00,
2013-01-18 17:45:00,44.4,27.9,29.88,East,85,2.0,3.0,52,0.00,,,0.00,Wunderground v.1.15,2013-01-18 23:45:00,
2013-01-18 17:50:00,44.2,28.1,29.88,East,91,3.0,3.0,53,0.00,,,0.00,Wunderground v.1.15,2013-01-18 23:50:00,
2013-01-18 17:55:00,44.1,28.0,29.88,ESE,105,1.0,4.0,53,0.00,,,0.00,Wunderground v.1.15,2013-01-18 23:55:00,
2013-01-18 18:00:00,44.0,28.0,29.88,ESE,118,2.0,2.0,53,0.00,,,0.00,Wunderground v.1.15,2013-01-19 00:00:00,
2013-01-18 18:05:00,43.9,27.9,29.88,East,90,2.0,3.0,53,0.00,,,0.00,Wunderground v.1.15,2013-01-19 00:05:00,
2013-01-18 18:10:00,43.7,27.7,29.88,ESE,103,3.0,3.0,53,0.00,,,0.00,Wunderground v.1.15,2013-01-19 00:10:00,
2013-01-18 18:15:00,43.6,27.6,29.87,East,96,4.0,5.0,53,0.00,,,0.00,Wunderground v.1.15,2013-01-19 00:15:00,
2013-01-18 18:20:00,43.3,27.8,29.87,SE,125,3.0,3.0,54,0.00,,,0.00,Wunderground v.1.15,2013-01-19 00:20:00,
2013-01-18 18:25:00,43.1,27.6,29.87,East,96,4.0,4.0,54,0.00,,,0.00,Wunderground v.1.15,2013-01-19 00:25:00,
2013-01-18 18:30:00,43.0,27.5,29.87,ESE,108,4.0,4.0,54,0.00,,,0.00,Wunderground v.1.15,2013-01-19 00:30:00,
2013-01-18 18:35:00,43.0,27.5,29.87,East,96,4.0,5.0,54,0.00,,,0.00,Wunderground v.1.15,2013-01-19 00:35:00,
2013-01-18 18:40:00,43.0,27.5,29.87,East,86,3.0,3.0,54,0.00,,,0.00,Wunderground v.1.15,2013-01-19 00:40:00,
2013-01-18 18:45:00,43.0,27.5,29.87,East,98,4.0,5.0,54,0.00,,,0.00,Wunderground v.1.15,2013-01-19 00:45:00,
2013-01-18 18:50:00,42.9,27.4,29.87,East,82,3.0,3.0,54,0.00,,,0.00,Wunderground v.1.15,2013-01-19 00:50:00,
2013-01-18 18:55:00,42.9,27.4,29.87,ESE,104,2.0,5.0,54,0.00,,,0.00,Wunderground v.1.15,2013-01-19 00:55:00,
2013-01-18 19:00:00,42.7,27.2,29.87,ESE,105,3.0,3.0,54,0.00,,,0.00,Wunderground v.1.15,2013-01-19 01:00:00,
2013-01-18 19:05:00,42.5,27.0,29.87,East,96,2.0,4.0,54,0.00,,,0.00,Wunderground v.1.15,2013-01-19 01:05:00,
2013-01-18 19:10:00,42.3,27.3,29.87,ESE,111,3.0,4.0,55,0.00,,,0.00,Wunderground v.1.15,2013-01-19 01:10:00,
2013-01-18 19:15:00,42.2,27.2,29.87,ESE,105,1.0,5.0,55,0.00,,,0.00,Wunderground v.1.15,2013-01-19 01:15:00,
2013-01-18 19:20:00,42.0,27.0,29.87,SSE,153,2.0,3.0,55,0.00,,,0.00,Wunderground v.1.15,2013-01-19 01:20:00,
2013-01-18 19:25:00,42.0,27.0,29.87,East,84,1.0,4.0,55,0.00,,,0.00,Wunderground v.1.15,2013-01-19 01:25:00,
2013-01-18 19:30:00,41.9,27.3,29.87,ESE,115,1.0,2.0,56,0.00,,,0.00,Wunderground v.1.15,2013-01-19 01:30:00,
2013-01-18 19:35:00,41.9,27.3,29.87,SE,126,1.0,3.0,56,0.00,,,0.00,Wunderground v.1.15,2013-01-19 01:35:00,
2013-01-18 19:40:00,41.8,27.2,29.87,East,99,1.0,2.0,56,0.00,,,0.00,Wunderground v.1.15,2013-01-19 01:40:00,
2013-01-18 19:45:00,41.7,27.1,29.87,East,86,3.0,3.0,56,0.00,,,0.00,Wunderground v.1.15,2013-01-19 01:45:00,
2013-01-18 19:50:00,41.5,27.4,29.87,East,94,0.0,1.0,57,0.00,,,0.00,Wunderground v.1.15,2013-01-19 01:50:00,
2013-01-18 19:55:00,41.4,27.3,29.87,East,80,2.0,3.0,57,0.00,,,0.00,Wunderground v.1.15,2013-01-19 01:55:00,
2013-01-18 20:00:00,41.4,27.3,29.86,SE,129,1.0,2.0,57,0.00,,,0.00,Wunderground v.1.15,2013-01-19 02:00:00,
2013-01-18 20:05:00,41.3,27.2,29.86,SE,145,1.0,4.0,57,0.00,,,0.00,Wunderground v.1.15,2013-01-19 02:05:00,
2013-01-18 20:10:00,41.1,27.4,29.86,East,101,2.0,3.0,58,0.00,,,0.00,Wunderground v.1.15,2013-01-19 02:10:00,
2013-01-18 20:15:00,41.0,27.3,29.86,ESE,115,1.0,4.0,58,0.00,,,0.00,Wunderground v.1.15,2013-01-19 02:15:00,
2013-01-18 20:20:00,40.9,27.7,29.86,East,94,3.0,3.0,59,0.00,,,0.00,Wunderground v.1.15,2013-01-19 02:20:00,
2013-01-18 20:25:00,40.8,27.6,29.86,East,91,3.0,4.0,59,0.00,,,0.00,Wunderground v.1.15,2013-01-19 02:25:00,
2013-01-18 20:30:00,40.7,27.5,29.86,ENE,75,2.0,2.0,59,0.00,,,0.00,Wunderground v.1.15,2013-01-19 02:30:00,
2013-01-18 20:35:00,40.6,27.4,29.86,East,88,3.0,5.0,59,0.00,,,0.00,Wunderground v.1.15,2013-01-19 02:35:00,
2013-01-18 20:40:00,40.5,27.7,29.86,ESE,121,2.0,3.0,60,0.00,,,0.00,Wunderground v.1.15,2013-01-19 02:40:00,
2013-01-18 20:45:00,40.5,27.7,29.86,East,84,3.0,5.0,60,0.00,,,0.00,Wunderground v.1.15,2013-01-19 02:45:00,
2013-01-18 20:50:00,40.6,27.4,29.86,SE,139,3.0,3.0,59,0.00,,,0.00,Wunderground v.1.15,2013-01-19 02:50:00,
2013-01-18 20:55:00,40.5,27.7,29.85,East,84,2.0,6.0,60,0.00,,,0.00,Wunderground v.1.15,2013-01-19 02:55:00,
2013-01-18 21:00:00,40.5,27.7,29.85,SE,128,1.0,3.0,60,0.00,,,0.00,Wunderground v.1.15,2013-01-19 03:00:00,
2013-01-18 21:05:00,40.5,27.7,29.85,ESE,112,1.0,4.0,60,0.00,,,0.00,Wunderground v.1.15,2013-01-19 03:05:00,
2013-01-18 21:10:00,40.5,27.7,29.85,ESE,108,2.0,3.0,60,0.00,,,0.00,Wunderground v.1.15,2013-01-19 03:10:00,
2013-01-18 21:15:00,40.6,28.2,29.85,SE,139,2.0,8.0,61,0.00,,,0.00,Wunderground v.1.15,2013-01-19 03:15:00,
2013-01-18 21:20:00,40.6,28.2,29.85,East,96,2.0,3.0,61,0.00,,,0.00,Wunderground v.1.15,2013-01-19 03:20:00,
2013-01-18 21:24:00,40.6,28.2,29.85,SE,129,3.0,6.0,61,0.00,,,0.00,Wunderground v.1.15,2013-01-19 03:24:00,
2013-01-18 21:29:00,40.7,28.3,29.85,ESE,105,3.0,9.0,61,0.00,,,0.00,Wunderground v.1.15,2013-01-19 03:29:00,
2013-01-18 21:34:00,40.7,28.3,29.85,SSE,150,3.0,8.0,61,0.00,,,0.00,Wunderground v.1.15,2013-01-19 03:34:00,
2013-01-18 21:39:00,40.8,28.4,29.85,ESE,106,4.0,8.0,61,0.00,,,0.00,Wunderground v.1.15,2013-01-19 03:39:00,
2013-01-18 21:44:00,40.7,28.7,29.85,SE,125,3.0,7.0,62,0.00,,,0.00,Wunderground v.1.15,2013-01-19 03:44:00,
2013-01-18 21:49:00,40.7,28.7,29.84,ESE,120,3.0,7.0,62,0.00,,,0.00,Wunderground v.1.15,2013-01-19 03:49:00,
2013-01-18 21:54:00,40.8,28.8,29.85,SSE,153,3.0,6.0,62,0.00,,,0.00,Wunderground v.1.15,2013-01-19 03:54:00,
2013-01-18 21:59:00,40.8,28.8,29.84,SE,128,1.0,6.0,62,0.00,,,0.00,Wunderground v.1.15,2013-01-19 03:59:00,
2013-01-18 22:04:00,40.8,28.8,29.84,ESE,103,2.0,7.0,62,0.00,,,0.00,Wunderground v.1.15,2013-01-19 04:04:00,
2013-01-18 22:09:00,40.7,28.7,29.84,ESE,105,3.0,7.0,62,0.00,,,0.00,Wunderground v.1.15,2013-01-19 04:09:00,
2013-01-18 22:14:00,40.8,28.8,29.83,East,92,3.0,6.0,62,0.00,,,0.00,Wunderground v.1.15,2013-01-19 04:14:00,
2013-01-18 22:19:00,40.9,28.9,29.83,South,174,2.0,6.0,62,0.00,,,0.00,Wunderground v.1.15,2013-01-19 04:19:00,
2013-01-18 22:24:00,40.9,28.5,29.83,SSE,166,4.0,7.0,61,0.00,,,0.00,Wunderground v.1.15,2013-01-19 04:24:00,
2013-01-18 22:29:00,41.0,28.6,29.83,SE,132,3.0,8.0,61,0.00,,,0.00,Wunderground v.1.15,2013-01-19 04:29:00,
2013-01-18 22:34:00,41.1,28.7,29.83,SE,128,4.0,8.0,61,0.00,,,0.00,Wunderground v.1.15,2013-01-19 04:34:00,
2013-01-18 22:39:00,41.1,28.7,29.82,SSE,156,3.0,8.0,61,0.00,,,0.00,Wunderground v.1.15,2013-01-19 04:39:00,
2013-01-18 22:44:00,41.1,28.7,29.82,East,96,3.0,6.0,61,0.00,,,0.00,Wunderground v.1.15,2013-01-19 04:44:00,
2013-01-18 22:49:00,41.1,28.7,29.82,SE,138,4.0,9.0,61,0.00,,,0.00,Wunderground v.1.15,2013-01-19 04:49:00,
2013-01-18 22:54:00,41.2,28.8,29.82,SE,124,6.0,8.0,61,0.00,,,0.00,Wunderground v.1.15,2013-01-19 04:54:00,
2013-01-18 22:59:00,41.3,28.4,29.82,SSE,160,3.0,8.0,60,0.00,,,0.00,Wunderground v.1.15,2013-01-19 04:59:00,
2013-01-18 23:00:00,41.3,28.4,29.82,ESE,111,3.0,4.0,60,0.00,,,0.00,Wunderground v.1.15,2013-01-19 05:00:00,
2013-01-18 23:01:00,41.3,28.4,29.82,ENE,77,5.0,5.0,60,0.00,,,0.00,Wunderground v.1.15,2013-01-19 05:01:00,
2013-01-18 23:03:00,41.3,28.4,29.82,South,185,6.0,7.0,60,0.00,,,0.00,Wunderground v.1.15,2013-01-19 05:03:00,
2013-01-18 23:08:00,41.3,28.4,29.82,SE,141,3.0,7.0,60,0.00,,,0.00,Wunderground v.1.15,2013-01-19 05:08:00,
2013-01-18 23:13:00,41.3,28.9,29.81,SSE,166,5.0,6.0,61,0.00,,,0.00,Wunderground v.1.15,2013-01-19 05:13:00,
2013-01-18 23:18:00,41.2,28.8,29.81,East,89,2.0,8.0,61,0.00,,,0.00,Wunderground v.1.15,2013-01-19 05:18:00,
2013-01-18 23:23:00,41.2,28.8,29.82,East,91,4.0,7.0,61,0.00,,,0.00,Wunderground v.1.15,2013-01-19 05:23:00,
2013-01-18 23:28:00,41.3,28.9,29.81,SE,132,2.0,8.0,61,0.00,,,0.00,Wunderground v.1.15,2013-01-19 05:28:00,
2013-01-18 23:33:00,41.3,28.9,29.81,SE,146,3.0,5.0,61,0.00,,,0.00,Wunderground v.1.15,2013-01-19 05:33:00,
2013-01-18 23:38:00,41.4,28.9,29.81,SE,132,2.0,8.0,61,0.00,,,0.00,Wunderground v.1.15,2013-01-19 05:38:00,
2013-01-18 23:43:00,41.6,28.7,29.82,SE,145,1.0,9.0,60,0.00,,,0.00,Wunderground v.1.15,2013-01-19 05:43:00,
2013-01-18 23:48:00,41.7,29.2,29.82,SE,129,2.0,9.0,61,0.00,,,0.00,Wunderground v.1.15,2013-01-19 05:48:00,
2013-01-18 23:53:00,41.7,28.8,29.81,East,89,5.0,7.0,60,0.00,,,0.00,Wunderground v.1.15,2013-01-19 05:53:00,
2013-01-18 23:58:00,41.6,29.1,29.81,SSE,155,2.0,7.0,61,0.00,,,0.00,Wunderground v.1.15,2013-01-19 05:58:00,